Location: Stanford
(52.2833°N, 2.4333°W)
Time: 19:21:36
(UTC+00:00)

Okean-O - Pass Details

Date: 22 January 2021
Orbit: 638 x 641 km, 98.2° (Epoch: 27 February)

Event Time Altitude Azimuth Distance (km) Brightness Sun altitude
Rises 18:54:56 0° 173° (S) 2,936 6.0 -20.4°
Reaches altitude 10° 18:57:09 10° 176° (S) 2,032 5.2 -20.7°
Maximum altitude 19:01:32 62° 258° (WSW) 723 3.1 -21.4°
Drops below altitude 10° 19:05:58 10° 340° (NNW) 2,048 5.4 -22.0°
Sets 19:08:12 0° 343° (NNW) 2,962 6.2 -22.4°
